METEOR 2-2

导读 | 豆包AI

METEOR 2-2是独联体(CIS,继承自苏联)发射的第二颗Meteor-2系列气象卫星,于1977年1月6日发射入轨。作为苏联第二代业务气象卫星,它运行在近地太阳同步轨道,搭载可见光红外相机、多通道扫描辐射计等载荷,可获取云层分布、大气参数等观测数据,为气象预报、气候研究提供关键数据支撑,推动了全球气象观测网络的发展。

基本信息
目录编号:
9661
目录名称:
METEOR 2-2
国际标识:
1977-002A
轨道中心:
EARTH
卫星名称:
METEOR 2-2
卫星全名:
--
卫星状态:
在轨 (已飞行17965 天)
发射日期:
1977-01-06 UTC
国别 :
俄罗斯(独联体) (CIS)
星等 :
--
轨道信息
数据来源 国际轨道数据
星历时间: 2026-03-15T00:30:53+0800
17小时前
查看轨道信息
半长轴: 7257.394km
偏心率: 0.0009602
轨道倾角: 81.268°
近地点辐角 254.670°
升交点赤经 184.877°
平近点角 105.341°
近地点: 872.288km
远地点: 886.226km
周期: 102.549分钟
每日圈数: 14.042089
详细信息
使用方式:
暂无
2D轨道图
3D轨道图
轨道高度分析图
轨道倾角分析图
轨道综合分析图
查看轨道综合分析图